Regional Weather Roundup
Issued by NWS

Home | Current Version | Previous Version | Text Only | Print | Product List | Glossary On
Versions: 1 2 3 4 5 6 7 8 9 10 11 12 13 14 15 16 17 18 19 20 21 22 23 24 25 26 27 28 29 30 31 32 33 34 35 36 37 38 39 40 41 42 43 44 45 46 47 48 49 50
000
ASUS45 KTFX 262119
RWRMT
MONTANA HOURLY WEATHER ROUNDUP
NATIONAL WEATHER SERVICE GREAT FALLS MT
219 PM MST MON JAN 26 2015

NOTE: "FAIR" INDICATES FEW OR NO CLOUDS BELOW 12000 FEET WITH NO
SIGNIFICANT WEATHER AND/OR OBSTRUCTIONS TO VISIBILITY.

* THESE STATIONS ARE NOT UNDER NWS QUALITY CONTROL. THEY DO NOT
   REPORT WEATHER SUCH AS PRECIPITATION OR FOG.

MTZ001>007-043-262200-
WEST OF THE DIVIDE
CITY           SKY/WX    TMP DP  RH WIND       PRES   REMARKS
KALISPELL      SUNNY     43  34  71 CALM      30.02F
MISSOULA       SUNNY     39  30  70 NW5       30.09F WCI  35
BUTTE          SUNNY     50  28  43 CALM      30.15F
MULLAN PASS    SUNNY     52  25  35 SW8G22    30.10F
* ANACONDA     SUNNY     61  25  25 S20G28     N/A
* ESSEX        N/A       50  31  48 N3G9       N/A
* EUREKA APT   SUNNY     48  34  59 CALM      30.00F
* HAMILTON APT SUNNY     52  34  50 NE3       30.05F
* LIBBY APT    SUNNY     43  34  71 CALM      30.04F
* LINCOLN      N/A       49  28  44 E4         N/A
* LOOKOUT PASS N/A       57  28  33 SE9G18     N/A
* POLSON       N/A       48  33  56 SE3G10     N/A
* RONAN APT    SUNNY     41  41 100 N/A        N/A
* SEELEY LAKE  N/A       56  29  36 SW1        N/A
* THOMP F APT  SUNNY     48  33  56 S1         N/A
$$

MTZ008-052>055-262200-
SOUTHWEST MONTANA
CITY           SKY/WX    TMP DP  RH WIND       PRES   REMARKS
BOZEMAN        SUNNY     46  34  63 E5        30.12F
DILLON         SUNNY     54  30  40 S12       30.15F
* W YELLOWSTON SUNNY     38  28  67 S2         N/A
* THREE FORKS  SUNNY     52  34  50 N/A        N/A
* BOULDER HILL N/A       50  25  38 S15        N/A
* MONIDA PASS  N/A       35  35 100 SE13       N/A   WCI  26
* RAYNOLDS PAS N/A       34  18  52 S20        N/A   WCI  23
* WHITEHALL    N/A       59  30  33 W6G14      N/A
* WISE RIVER   N/A       44  28  53 W2         N/A
$$

MTZ009>010-012-014-046-048-049-054-262200-
EAST SLOPES AND CENTRAL MONTANA
CITY           SKY/WX    TMP DP  RH WIND       PRES   REMARKS
CUT BANK       PTCLDY    66  28  24 SW25G31   29.92F
GREAT FALLS    PTSUNNY   66  28  24 SW18      29.96F
HELENA         SUNNY     52  34  50 CALM      30.08F
MALMSTROM AFB  PTSUNNY   64  34  33 SW17      29.96F
* CONRAD       PTCLDY    61  41  48 SW6        N/A
* DEARBORN     N/A       59  30  33 S11G17     N/A
* EAST GLACIER N/A       58  25  28 W19G24     N/A
* MONARCH      N/A       61  20  20 W15G22     N/A
* PENDROY      N/A       64  34  33 S6G11      N/A
* ROGERS PASS  N/A       55  24  30 SE13G21    N/A
* SWEET GRASS  N/A       61  32  34 SW23G30    N/A
* WHITE SULPH  N/A       60  28  30 S11G17     N/A
$$

MTZ011-013-016-021-035-040-045-047-050-051-262200-
NORTH CENTRAL MONTANA
CITY           SKY/WX    TMP DP  RH WIND       PRES   REMARKS
HAVRE          CLOUDY    52  36  55 SW21      29.89F
LEWISTOWN      PTSUNNY   55  30  39 W7        30.00F
* N BAR RANCH  SUNNY     64  23  21 CALM      30.01F
* CHINOOK      CLOUDY    55  36  49 W12       29.88F
* MALTA APT    PTSUNNY   54  37  53 N/A        N/A
* CHESTER      N/A       55  34  45 N/A        N/A
* DENTON       N/A       59  34  39 SW8        N/A
* GEYSER       N/A       69  25  19 W29G38     N/A
* JUDITH GAP   N/A       61  32  34 W8G13      N/A
* LOMA         N/A       60  37  43 SW7        N/A
$$

MTZ017>020-022>027-061-062-262200-
NORTHEAST MONTANA
CITY           SKY/WX    TMP DP  RH WIND       PRES   REMARKS
GLASGOW        PTSUNNY   48  36  63 S3        29.91F
GLENDIVE       PTCLDY    54  37  53 SE7       29.94F
JORDAN         CLOUDY    50  37  61 W6        29.93F
SIDNEY         CLOUDY    52  37  57 SE5       29.95F
WOLF POINT     PTSUNNY   48  36  63 SW5       29.92F
* BEAVER HILL  N/A       50  35  57 S6         N/A
* CIRCLE       N/A       56  41  57 SW4        N/A
* LINDSAY DVD  N/A       56  35  45 W12        N/A
* NAVAJO       N/A       46  32  58 S8         N/A
* PLENTYWOOD A PTCLDY    46  34  63 S6        29.91F
* POPLAR APT   PTSUNNY   48  37  66 N/A       29.91F
* SACO         N/A       51  37  59 SE6        N/A
* SCOBEY APT   PTSUNNY   46  34  63 SE6        N/A
$$

MTZ028>042-056>058-262200-
SOUTHCENTRAL AND SOUTHEAST MONTANA
CITY           SKY/WX    TMP DP  RH WIND       PRES   REMARKS
BAKER          PTCLDY    55  37  51 W8        29.97F
BILLINGS       PTSUNNY   59  30  33 SW21G30   30.04F
LIVINGSTON     SUNNY     63  27  26 SW25G39   30.07F
MILES CITY     PTSUNNY   57  36  46 W7        29.96F
* BIG TIMBER A SUNNY     63  28  27 W18       30.08F
* FORSYTH APT  CLOUDY    61  30  31 SW9       29.95F
* LAUREL APT   PTSUNNY   57  28  33 S9         N/A
* ROUNDUP APT  PTSUNNY   61  28  29 S10G16     N/A
* ALZADA       N/A       63  34  34 SW9        N/A
* HYSHAM       N/A       58  28  32 W9G19      N/A
* LAME DEER    N/A       58  27  31 W14G20     N/A
* REED POINT   N/A       63  36  37 NE6        N/A
* ROSCOE HILL  N/A       69  18  14 S6G12      N/A
$$

REGIONAL REPORTS...DAKOTAS
CITY           SKY/WX    TMP DP  RH WIND       PRES   REMARKS
WILLISTON      PTCLDY    50  30  46 SW9       29.93F
DICKINSON      PTSUNNY   52  30  43 W7        29.94F
BEACH          SUNNY     48  36  63 S6        29.97F
CROSBY         SUNNY     46  36  68 SW7       29.91F
TIOGA          SUNNY     45  36  71 SW7       29.95F
WATFORD CITY   SUNNY     46  34  63 W7        29.92F
BISMARCK       SUNNY     48  30  50 NW8       29.96S
GRAND FORKS    CLOUDY    32  27  82 N16       29.89R WCI  21
FARGO          CLOUDY    37  30  76 N16       29.88R WCI  28
BUFFALO SD     SUNNY     63  32  31 W15       29.92F
RAPID CITY     SUNNY     68  28  22 N16       30.01F
$$

REGIONAL REPORTS...WYOMING/IDAHO/WASHINGTON
CITY           SKY/WX    TMP DP  RH WIND       PRES   REMARKS
GILLETTE       PTCLDY    61  36  39 SW15      30.07F
SHERIDAN       PTCLDY    64  36  35 S3        30.05F
CODY           PTCLDY    43  32  65 NE6       30.14F
YELLOWSTONE LA SUNNY     30  19  64 SE3       30.36F
SALMON         CLOUDY   N/A N/A N/A CALM      30.26F VSB 1 1/2
MULLAN PASS    SUNNY     52  25  35 SW8G22    30.10S
SAND POINT     FOG       36  36 100 CALM      30.07F VSB M1/4
SPOKANE        FOG       39  39 100 NE5       30.03F WCI  35
$$

REGIONAL REPORTS...ALBERTA
CITY           SKY/WX    TMP DP  RH WIND       PRES   REMARKS
CALGARY        PTSUNNY   54  28  37 SW5       29.79F
LETHBRIDGE     PTSUNNY   66  32  28 SW12G18   29.83F
MEDICINE HAT   PTSUNNY   52  39  61 SW6       29.82F
EDMONTON       PTSUNNY   36  32  85 S5        29.79F WCI  32
WATERTON GATE  N/A       63  27  26 SW15G23    N/A
CARDSTON       N/A       61  30  31 W9G17      N/A
MILK RIVER     N/A       63  34  34 SW18G24    N/A
$$

REGIONAL REPORTS...SASKATCHEWAN
CITY           SKY/WX    TMP DP  RH WIND       PRES   REMARKS
SWIFT CURRENT  CLOUDY    46  37  71 SW9       29.82F
MOOSE JAW      PTCLDY    48  30  50 SW5       29.89F
REGINA         PTSUNNY   39  32  76 CALM      29.89F
VAL MARIE      N/A       45  37  74 S5         N/A
ASSINIBOIA     N/A       48  30  50 S3         N/A
CORONACH       N/A       45  36  71 SE5        N/A

$$




USA.gov is the U.S. government's official web portal to all federal, state and local government web resources and services.